Bradshaw AFB, HI

8:05 AM HST on February 25, 2018 (GMT -1000)
Bradshaw Army Air Field

Weather History for PHSF - December, 2013

Change the Weather History Date:

Tuesday, December 10, 2013

  Actual Average Record
Temperature  
Mean Temperature 60 °F -  
Max Temperature 72 °F 64 °F 73 °F (2014)
Min Temperature 48 °F 42 °F 35 °F (2004)
Degree Days  
Heating Degree Days 5    
Growing Degree Days 10 (Base 50)    
Moisture  
Dew Point 35 °F    
Average Humidity 44    
Maximum Humidity 84    
Minimum Humidity 13    
Precipitation  
Precipitation 0.00 in - - ()
Sea Level Pressure  
Sea Level Pressure 30.31 in    
Wind  
Wind Speed 12 mph (ESE)    
Max Wind Speed 21 mph    
Max Gust Speed 33 mph    
Visibility 12 miles    
Events      
Averages and records for this station are not official NWS values.
T = Trace of Precipitation, MM = Missing Value Source: NWS Daily Summary

Daily Weather History Graph

Daily Weather History Graph

Search for Another Location

Airport or City:

Trip Planner

Search our weather history database for the weather conditions in past years. The results will help you decide how hot, cold, wet, or windy it might be!

Date:

Astronomy

Dec. 10, 2013 Rise Set
Actual Time 6:46 AM HST 5:44 PM HST
Civil Twilight 6:22 AM HST 6:08 PM HST
Nautical Twilight 5:55 AM HST 6:35 PM HST
Astronomical Twilight 5:27 AM HST 7:02 PM HST
Moon 1:13 PM HST (12/10) 12:58 AM HST (12/10)
Length of Visible Light 11h 45m
Length of Day
10h 57m
Waxing Gibbous, 64% of the Moon is Illuminated
Dec 10
Waxing Gibbous
Dec 16
Full
Dec 25
Last Quarter
Jan 1
New
Jan 7
First Quarter

Hourly Weather History & Observations

Time (HST) Temp. Dew Point Humidity Pressure Visibility Wind Dir Wind Speed Gust Speed Precip Events Conditions
12:56 AM 49.5 °F 41.2 °F 73% 30.37 in 12.0 mi SE 8.1 mph - N/A   Clear
1:56 AM 50.9 °F 45.1 °F 81% 30.36 in 12.0 mi SE 8.1 mph - N/A   Clear
2:56 AM 50.9 °F 44.2 °F 78% 30.34 in 12.0 mi ESE 8.1 mph - N/A   Clear
3:56 AM 48.4 °F 40.5 °F 74% 30.33 in 12.0 mi ESE 6.9 mph - N/A   Clear
4:56 AM 50.0 °F 44.6 °F 82% 30.33 in 12.0 mi ESE 8.1 mph - N/A   Clear
5:56 AM 48.9 °F 44.2 °F 84% 30.34 in 12.0 mi ESE 8.1 mph - N/A   Clear
6:56 AM 50.4 °F 41.0 °F 70% 30.35 in 12.0 mi ESE 9.2 mph - N/A   Clear
7:56 AM 57.2 °F 41.7 °F 56% 30.36 in 12.0 mi SE 6.9 mph - N/A   Clear
8:56 AM 63.3 °F 32.5 °F 32% 30.37 in 12.0 mi SSE 10.4 mph 15.0 mph N/A   Clear
9:56 AM 66.2 °F 35.4 °F 32% 30.37 in 12.0 mi SW 4.6 mph - N/A   Clear
10:56 AM 69.3 °F 34.5 °F 28% 30.35 in 12.0 mi SW 4.6 mph - N/A   Clear
11:56 AM 72.1 °F 28.9 °F 20% 30.32 in 12.0 mi South 10.4 mph 23.0 mph N/A   Clear
12:40 PM 71.6 °F 35.6 °F 27% 30.30 in 12.0 mi South 15.0 mph 28.8 mph N/A   Clear
12:43 PM 71.6 °F 37.4 °F 29% 30.30 in 12.0 mi SSE 15.0 mph 28.8 mph N/A   Clear
12:56 PM 70.5 °F 36.3 °F 29% 30.29 in 12.0 mi SSE 15.0 mph 25.3 mph N/A   Clear
1:05 PM 69.8 °F 33.8 °F 27% 30.29 in 12.0 mi South 12.7 mph 24.2 mph N/A   Clear
1:08 PM 71.6 °F 32.0 °F 23% 30.29 in 12.0 mi SSE 13.8 mph 24.2 mph N/A   Clear
1:13 PM 71.6 °F 30.2 °F 22% 30.29 in 12.0 mi South 12.7 mph 24.2 mph N/A   Clear
1:20 PM 71.6 °F 33.8 °F 25% 30.29 in 12.0 mi SE 15.0 mph 24.2 mph N/A   Clear
1:54 PM 69.8 °F 30.2 °F 23% 30.27 in 12.0 mi SE 18.4 mph 27.6 mph N/A   Clear
1:56 PM 70.2 °F 29.7 °F 22% 30.27 in 12.0 mi SSE 18.4 mph 27.6 mph N/A   Clear
2:02 PM 69.8 °F 30.2 °F 23% 30.27 in 12.0 mi South 18.4 mph 27.6 mph N/A   Clear
2:05 PM 71.6 °F 30.2 °F 22% 30.27 in 12.0 mi SSE 12.7 mph 24.2 mph N/A   Clear
2:43 PM 71.6 °F 33.8 °F 25% 30.24 in 12.0 mi SSE 12.7 mph 21.9 mph N/A   Clear
2:56 PM 72.7 °F 33.4 °F 24% 30.24 in 12.0 mi South 12.7 mph 20.7 mph N/A   Clear
3:56 PM 66.0 °F 46.8 °F 50% 30.25 in 12.0 mi WSW 9.2 mph 17.3 mph N/A   Clear
4:56 PM 62.6 °F 42.8 °F 48% 30.26 in 12.0 mi SSE 17.3 mph 29.9 mph N/A   Clear
5:56 PM 59.0 °F 38.3 °F 46% 30.28 in 12.0 mi SSE 12.7 mph 19.6 mph N/A   Clear
6:56 PM 57.9 °F 32.5 °F 38% 30.29 in 12.0 mi ESE 8.1 mph 17.3 mph N/A   Clear
7:35 PM 60.8 °F 21.2 °F 22% 30.29 in 12.0 mi East 13.8 mph 29.9 mph N/A   Clear
7:43 PM 59.0 °F 15.8 °F 19% 30.30 in 12.0 mi ESE 13.8 mph 24.2 mph N/A   Clear
7:56 PM 58.8 °F 11.5 °F 15% 30.29 in 12.0 mi ESE 13.8 mph 28.8 mph N/A   Clear
8:55 PM 59.0 °F 6.8 °F 13% 30.31 in 7.0 mi East 20.7 mph 33.4 mph N/A   Clear
8:56 PM 59.4 °F 7.5 °F 13% 30.32 in 7.0 mi East 16.1 mph 33.4 mph N/A   Clear
8:57 PM 59.0 °F 6.8 °F 13% 30.32 in 7.0 mi ESE 12.7 mph 33.4 mph N/A   Clear
9:56 PM 56.7 °F 40.3 °F 54% 30.32 in 12.0 mi ESE 16.1 mph 29.9 mph N/A   Clear
10:12 PM 57.2 °F 33.8 °F 41% 30.32 in 12.0 mi East 18.4 mph 32.2 mph N/A   Clear
10:13 PM 57.2 °F 35.6 °F 44% 30.32 in 12.0 mi NE 19.6 mph 32.2 mph N/A   Clear
10:15 PM 57.2 °F 37.4 °F 48% 30.32 in 12.0 mi ENE 17.3 mph 32.2 mph N/A   Clear
10:16 PM 55.4 °F 37.4 °F 51% 30.32 in 12.0 mi ESE 16.1 mph 32.2 mph N/A   Clear
10:20 PM 57.2 °F 33.8 °F 41% 30.32 in 12.0 mi ENE 17.3 mph 27.6 mph N/A   Clear
10:22 PM 55.4 °F 35.6 °F 47% 30.32 in 12.0 mi East 16.1 mph 27.6 mph N/A   Clear
10:35 PM 55.4 °F 35.6 °F 47% 30.33 in 12.0 mi ENE 15.0 mph 25.3 mph N/A   Clear
10:37 PM 55.4 °F 35.6 °F 47% 30.33 in 12.0 mi East 15.0 mph 25.3 mph N/A   Clear
10:49 PM 55.4 °F 33.8 °F 44% 30.33 in 12.0 mi ENE 15.0 mph 26.5 mph N/A   Clear
10:52 PM 55.4 °F 33.8 °F 44% 30.32 in 12.0 mi ENE 16.1 mph 21.9 mph N/A   Clear
10:53 PM 55.4 °F 35.6 °F 47% 30.32 in 12.0 mi ENE 16.1 mph 23.0 mph N/A   Clear
10:56 PM 55.0 °F 34.5 °F 46% 30.32 in 12.0 mi East 18.4 mph 25.3 mph N/A   Clear
10:57 PM 55.4 °F 35.6 °F 47% 30.32 in 12.0 mi NE 19.6 mph 27.6 mph N/A   Clear
10:59 PM 55.4 °F 33.8 °F 44% 30.32 in 12.0 mi ENE 18.4 mph 27.6 mph N/A   Clear
11:04 PM 55.4 °F 39.2 °F 54% 30.33 in 12.0 mi ENE 18.4 mph 27.6 mph N/A   Clear
11:05 PM 55.4 °F 37.4 °F 51% 30.32 in 12.0 mi NNE 18.4 mph 27.6 mph N/A   Clear
11:06 PM 55.4 °F 37.4 °F 51% 30.32 in 12.0 mi ENE 18.4 mph 27.6 mph N/A   Clear
11:07 PM 55.4 °F 35.6 °F 47% 30.33 in 12.0 mi ESE 17.3 mph 27.6 mph N/A   Clear
11:09 PM 55.4 °F 37.4 °F 51% 30.32 in 12.0 mi ENE 18.4 mph 26.5 mph N/A   Clear
11:11 PM 55.4 °F 37.4 °F 51% 30.33 in 12.0 mi East 18.4 mph 26.5 mph N/A   Clear
11:41 PM 53.6 °F 42.8 °F 67% 30.32 in 12.0 mi ENE 13.8 mph 24.2 mph N/A   Clear
11:43 PM 53.6 °F 42.8 °F 67% 30.32 in 12.0 mi East 15.0 mph 23.0 mph N/A   Clear
11:56 PM 53.1 °F 44.1 °F 71% 30.32 in 12.0 mi East 18.4 mph 26.5 mph N/A   Clear
11:57 PM 53.6 °F 44.6 °F 72% 30.32 in 12.0 mi ENE 18.4 mph 26.5 mph N/A   Clear
11:59 PM 53.6 °F 44.6 °F 72% 30.32 in 12.0 mi East 17.3 mph 26.5 mph N/A   Clear